Tracking 19827 objects as of 22-Aug-2019
HD Live streaming from Space Station
objects crossing your sky now

SL-16 DEB

Track SL-16 DEB now!
10-day predictions


NORAD ID: 42242
Int'l Code: 1993-016CW
Perigee: 751.0 km
Apogee: 966.9 km
Inclination: 71.0 °
Period: 102.0 minutes
Semi major axis: 7229 km
RCS: Unknown
Launch date: March 26, 1993
Source: Commonwealth of Independent States (former USSR) (CIS)
Launch site: PLESETSK MISSILE AND SPACE COMPLEX (PKMTR)

Note: This is SATELLITE DEBRIS
aabbcc
Your satellite tracking list
Your tracking list is empty




NASA's NSSDC Master Catalog

Two Line Element Set (TLE):
1 42242U 93016CW  19188.38247178  .00001501  00000-0  75808-3 0  9998
2 42242  70.9790  79.4825 0149297 196.7497 162.8666 14.12215262758515
Source of the keplerian elements: AFSPC